Regional Weather Roundup
Issued by NWS

Current Version | Previous Version | Text Only | Print | Product List | Glossary On
Versions: 1 2 3 4 5 6 7 8 9 10 11 12 13 14 15 16 17 18 19 20 21 22 23 24 25 26 27 28 29 30 31 32 33 34 35 36 37 38 39 40 41 42 43 44 45 46 47 48 49 50
851
ASCA42 TJSJ 111410
RWRPR
PUERTO RICO/U.S. VIRGIN ISLANDS HOURLY WEATHER ROUNDUP
NATIONAL WEATHER SERVICE SAN JUAN PR
1000 AM AST THU FEB 11 2016

PRZ001-004-111500-
PUERTO RICO

CITY           SKY/WX    TMP DP  RH WIND       PRES   REMARKS
SAN JUAN LMM   MOSUNNY   81  68  65 E12       30.13S
AGUADILLA      MOSUNNY   81  64  57 E6        30.16R
CEIBA          MOSUNNY   82  70  65 E13       30.16R
$$

PRZ006-007-111500-
U.S. VIRGIN ISLANDS

CITY           SKY/WX    TMP DP  RH WIND       PRES   REMARKS
CHARLOTTE AMA  MOSUNNY   81  70  69 E14       30.13R
CHRISTIANSTED  SUNNY     84  68  58 E17       30.14R
$$

HOURLY WEATHER ROUNDUP FOR THE NEWS MEDIA

CITY           SKY/WX    TMP DP  RH WIND       PRES   REMARKS
ORLANDO        SUNNY     50  27  40 VRB6      30.34R
NEW YORK       MOSUNNY   26  -1  31 W17G26    29.92R WCI  13
NEWARK         MOSUNNY   25   1  35 W21G28    29.92R WCI  11
CHICAGO        MOSUNNY    8  -2  63 NW10      30.29R WCI  -6
HARTFORD       CLOUDY    27  15  61 W15G24    29.72R WCI  15
BOSTON         CLOUDY    26  14  60 W14       29.71R WCI  14
DALLAS         PTCLDY    49  34  56 CALM      30.09R
PHILADELPHIA   MOSUNNY   23   5  46 W17G31    30.02R WCI   9
LOS ANGELES    PTCLDY    61  32  33 NE3       30.07S
WASHINGTON DC  FAIR      21   2  43 NW22      30.11R WCI   5



USA.gov is the U.S. government's official web portal to all federal, state and local government web resources and services.